Find Starlink 35156

NORAD ID: 65607 Int'l Des: 2025-207 Owner: SPXS Country: US Constellation: starlink operational
LEOCIRCULARRETROGRADESSO

当前视图

正在加载3D地球...

About Starlink 35156

Starlink 35156 (NORAD 65607) is a starlink constellation satellite (v2 mini) launched Sep 13, 2025 by SPXS of US. It operates in LEO, CIRCULAR, RETROGRADE, SSO orbit with a mass of 575.00 kg.

即将过境

Passes for default location (London). Set your location on the main map for personalized predictions.

高度历史

Loading altitude history...

两行轨道根数

1 65607U 25207R 26252.16711323 .00009071 00000-0 63132-3 0 9996
2 65607 97.2903 315.1930 0001235 202.4257 157.6917 15.05680196 55873
Epoch: Sep 9, 2026 • Age: 6 hours

当前状态

高度 553.6 km
远地点 / 近地点 N/A
速度 7.58 km/s
星下点 -2.23°S, 171.53°E
发射日期 Sep 13, 2025
运行时间 0.9 years
类型 internet

技术详情

分类 Payload
质量 575.00 kg
干质量 530.00 kg
总质量 575.00 kg
长度 0.30 m
直径 4.10 m
跨度 29.00 m
形状 Box + pan
制造商 SPXS
平台类型 Starlink V2MO
阶段状态 In Orbit
所有者/国家 SPXS/US

Most Searched